Regional Weather Roundup
Issued by NWS

Home | Current Version | Previous Version | Text Only | Print | Product List | Glossary Off
Versions: 1 2 3 4 5 6 7 8 9 10 11 12 13 14 15 16 17 18 19 20 21 22 23 24 25 26 27 28 29 30 31 32 33 34 35 36 37 38 39 40 41 42 43 44 45 46 47 48 49 50

000
ASUS43 KDTX 281301
RWRMI
MICHIGAN HOURLY REGIONAL WEATHER ROUNDUP
NATIONAL WEATHER SERVICE DETROIT/PONTIAC MI
800 AM EST SUN DEC 28 2014

NOTE: "FAIR" INDICATES FEW OR NO CLOUDS BELOW 12,000 FEET WITH NO
SIGNIFICANT WEATHER AND/OR OBSTRUCTION TO VISIBILITY.

MIZ047>049-052>055-059>063-066>070-074>076-081>083-281400-
SOUTHEAST LOWER MICHIGAN

CITY           SKY/WX    TMP DP  RH WIND       PRES   REMARKS
ADRIAN         CLOUDY    34  30  85 NW3       30.08S
ALMA           CLOUDY    30  26  85 W10       30.07R WCI  21
ANN ARBOR      CLOUDY    34  31  88 NW7       30.06R WCI  28
BAD AXE        CLOUDY    32  30  92 W5        30.03S WCI  28
CARO           CLOUDY    32  30  92 W6        30.04R WCI  26
DETROIT CITY   CLOUDY    38  30  73 W3        30.06R
DETROIT        CLOUDY    36  30  79 W6        30.07R WCI  31
FLINT          CLOUDY    35  30  82 W8        30.06R WCI  29
GROSSE ILE     CLOUDY    36  30  80 W6        30.06R WCI  31
HILLSDALE      CLOUDY    33  32  94 W9        30.06S WCI  26
HOWELL         CLOUDY    32  31  95 W12       30.05S WCI  23

CITY           SKY/WX    TMP DP  RH WIND       PRES   REMARKS
JACKSON        CLOUDY    33  28  81 NW8       30.06S WCI  26
LAMBERTVILLE   CLOUDY    36  32  87 W7        30.08S WCI  30
LANSING        PTCLDY    30  25  81 W9        30.08R WCI  22
LAPEER         LGT SNOW  32  30  93 NW7G16    30.05R WCI  26
MASON          CLOUDY    32  27  83 W9        30.06S WCI  24
MONROE         CLOUDY    36  30  80 CALM      30.06R
MT. CLEMENS    CLOUDY    34  30  84 CALM      30.03S
PONTIAC        CLOUDY    34  30  85 W5        30.03S WCI  30
PORT HOPE        N/A     34  26  72 SW6       30.00R WCI  29
PORT HURON     CLOUDY    34  30  86 CALM      30.05S
TRI CITIES     CLOUDY    34  25  69 W7        30.06R WCI  28
TROY           CLOUDY    38  31  78 CALM      30.07R
SAGINAW HB     MOCLDY    32  27  80 W8        30.05R WCI  25
$$
MIZ043>046-050>051-056>058-064>065-071>073-077>080-281400-
SOUTHWEST LOWER MICHIGAN

CITY           SKY/WX    TMP DP  RH WIND       PRES   REMARKS
BATTLE CREEK   MOCLDY    32  25  75 NW12      30.08S WCI  23
BENTON HARBOR  MOCLDY    30  22  72 NW5       30.12F WCI  25
BIG RAPIDS     CLEAR     28  22  80 W6        30.05S WCI  21
COLDWATER      CLOUDY    32  28  83 W10       30.08S WCI  24
FREMONT        FAIR      26  22  82 W5        30.08F WCI  21
HOLLAND        CLOUDY    33  23  66 NW7       30.10F WCI  27
GRAND RAPIDS   CLOUDY    31  23  72 W14       30.09R WCI  21
IONIA          CLOUDY    32  27  82 W7        30.07R WCI  25
KALAMAZOO      CLOUDY    32  24  72 W8        30.09F WCI  25
LUDINGTON      CLEAR     28  21  74 NW3       30.08S
MARSHALL       CLOUDY    32  26  79 NW6       30.07S WCI  26
MOUNT PLEASANT CLOUDY    31  23  72 CALM      30.05R
MUSKEGON       MOCLDY    30  22  72 W8        30.10S WCI  22
SOUTH HAVEN    CLOUDY    33  24  69 NW7       30.11S WCI  27
$$
MIZ016>042-281400-
NORTHERN LOWER MICHIGAN

CITY           SKY/WX    TMP DP  RH WIND       PRES   REMARKS
ALPENA         MOCLDY    28  21  75 NW3       30.00R
BEAVER ISLAND  PTCLDY    25  20  82 W6        30.01R WCI  18
BELLAIRE       CLOUDY    28  20  69 SW5       30.03S WCI  23
CADILLAC       MOCLDY    24  19  81 W8        30.01R WCI  15
CHARLEVOIX     PTCLDY    27  17  66 W12       30.03S WCI  17
FRANKFORT      CLEAR     27  20  76 NW7G17    30.05S WCI  19
GAYLORD        CLEAR     24  17  74 W8        29.97R WCI  15
GRAYLING       PTCLDY    26  19  76 W6        30.01R WCI  19
HARBOR SPRINGS MOCLDY    27  18  68 W9        29.99S WCI  18
HOUGHTON LAKE  MOCLDY    26  17  68 W12       30.02R WCI  16
MANISTEE       CLEAR     27  19  74 W8        30.07R WCI  18
OSCODA         CLOUDY    31  28  87 W6        30.01R WCI  26
PELLSTON       PTCLDY    24  18  77 SW3       30.00R
ROGERS CITY    PTCLDY    27  22  81 W6        30.00S WCI  21
TRAVERSE CITY  PTCLDY    27  19  72 W5        30.03S WCI  22
$$
MIZ007>008-015-281400-
EASTERN UPPER MICHIGAN

CITY           SKY/WX    TMP DP  RH WIND       PRES   REMARKS
KINROSS        PTCLDY    21  19  93 W6        29.95R WCI  14
MACKINAC ISLAN PTCLDY    26  20  79 W12       29.97S WCI  16
NEWBERRY       MOCLDY    16  14  92 SW9       29.96R WCI   4
S. S. MARIE    CLOUDY    25  19  78 SW9       29.96R WCI  15
MUNISING         N/A     20  13  74 W8        29.98R WCI  10
$$
MIZ004>006-011>014-085-281400-
CENTRAL UPPER MICHIGAN

CITY           SKY/WX    TMP DP  RH WIND       PRES   REMARKS
MANISTIQUE     MOCLDY    17  14  87 W8        29.99S WCI   7
ESCANABA       CLOUDY    16  10  79 W10       30.01S WCI   3
MENOMINEE      CLEAR     18  10  73 W6        30.06S WCI   9
SAWYER-GWINN   CLOUDY    14  10  85 W3        29.96R
$$
MIZ001>003-009>011-084-281400-
WESTERN UPPER MICHIGAN

CITY           SKY/WX    TMP DP  RH WIND       PRES   REMARKS
IRON MOUNTAIN    N/A     14   9  80 W6        29.99R WCI   5
HOUGHTON       LGT SNOW  20  13  74 NW16      29.95R WCI   6
COPPER HARBOR    N/A     23  16  74 N18G26    29.98R WCI   9
IRONWOOD       CLOUDY    18  14  86 W10       29.99R WCI   6
$$

ABBREVIATIONS USED IN REMARKS
   TC - TEMPERATURE IN CELSIUS
  WCI - WIND CHILL INDEX
   HX - HEAT INDEX
  VSB - VISIBILITY




USA.gov is the U.S. government's official web portal to all federal, state and local government web resources and services.